Regional Weather Roundup
Issued by NWS Upton, NY

Current Version | Previous Version | Graphics & Text | Print | Product List | Glossary Off
Versions: 1 2 3 4 5 6 7 8 9 10 11 12 13 14 15 16 17 18 19 20 21 22 23 24 25 26 27 28 29 30 31 32 33 34 35 36 37 38 39 40 41 42 43 44 45 46 47 48 49 50

000
ASUS41 KOKX 210405
RWROKX

REGIONAL WEATHER ROUNDUP
NATIONAL WEATHER SERVICE NEW YORK NY
1200 AM EDT THU AUG 21 2014

NOTE: "FAIR" INDICATES FEW OR NO CLOUDS BELOW 12,000 FEET WITH NO
SIGNIFICANT WEATHER AND/OR OBSTRUCTIONS TO VISIBILITY.

NYZ071-072-176-178-NJZ106-104-210500-
NEW YORK CITY METRO AREA


CITY           SKY/WX    TMP DP  RH WIND       PRES   REMARKS
CENTRAL PARK   CLOUDY    73  58  59 CALM      30.05R
LAGUARDIA APRT CLOUDY    73  60  63 S6        30.02R
KENNEDY INTL   CLOUDY    71  62  73 SW6       30.04R
NEWARK/LIBERTY CLOUDY    72  62  71 SW5       30.04R
BRNX BOT. GARD   N/A     70  59  68 NE1       30.04S
TETERBORO      CLOUDY    73  62  68 SW7       30.02R
$$

NYZ177-179-078>081-210500-
LONG ISLAND NEW YORK

CITY           SKY/WX    TMP DP  RH WIND       PRES   REMARKS
FARMINGDALE    PTCLDY    69  62  78 SW5       30.03R
ISLIP          MOCLDY    67  61  81 E3        30.01S
SHIRLEY        CLEAR     62  59  90 CALM      30.04R
WESTHAMPTON    CLEAR     58  53  84 CALM      30.05S
MONTAUK POINT    N/A     61  57  87 CALM      30.05S
$$

NYZ052-065-067-210500-
HUDSON VALLEY

CITY           SKY/WX    TMP DP  RH WIND       PRES   REMARKS
WHITE PLAINS   CLOUDY    66  60  81 CALM      30.04R
NEWBURGH       MOCLDY    72  59  64 CALM      30.05R
MONTGOMERY     CLOUDY    69  56  62 CALM      30.03R
POUGHKEEPSIE   CLOUDY    73  58  59 S5        30.02R
ALBANY         CLOUDY    74  66  76 VRB5      30.01R
$$

NJZ001-105-106-008-010-013-015-019>022-104-210500-
NEW JERSEY

CITY           SKY/WX    TMP DP  RH WIND       PRES   REMARKS
NEWARK/LIBERTY CLOUDY    72  62  71 SW5       30.04R
TETERBORO      CLOUDY    73  62  68 SW7       30.02R
CALDWELL       CLOUDY    71  58  63 CALM      30.04R
MORRISTOWN     CLOUDY    70  61  73 CALM      30.04R
SOMERVILLE     CLOUDY    68  61  78 CALM      30.02R
LINDEN         FAIR      75  64  69 CALM      30.05R
SUSSEX         CLOUDY    70  60  70 CALM      30.03R
ANDOVER          N/A     70  58  65 CALM      30.04R
TRENTON        CLOUDY    71  62  73 S7        30.04R
MILLVILLE      CLOUDY    70  64  81 CALM      30.05R
ATLANTIC CITY  MOCLDY    65  61  87 CALM      30.04R
WRIGHTSTOWN    CLOUDY    68  63  85 VRB2      30.02R
TOMS RIVER     CLOUDY    64  61  88 CALM      30.05R
BELMAR         PTCLDY    68  61  77 MISG      30.04R
$$

PAZ047>061-062-071-210500-
EASTERN PENNSYLVANIA

CITY           SKY/WX    TMP DP  RH WIND       PRES   REMARKS
PHILADELPHIA   CLOUDY    73  63  70 S5        30.04R
ALLENTOWN      CLOUDY    73  66  78 S6        30.03R
SCRANTON       CLOUDY    74  64  71 SW7       30.02R
$$

CTZ002-004>006-009-010-012-RIZ004-006-007-MAZ004-011-015-210500-
SOUTHERN NEW ENGLAND
 IN CT

CITY           SKY/WX    TMP DP  RH WIND       PRES   REMARKS
BRADLEY INTL   PTCLDY    68  58  70 SE6       30.03S
HARTFORD       CLEAR     66  59  78 S3        30.03S
DANBURY        MOCLDY    65  60  84 CALM      30.05R
WTRBRY/OXFORD  PTCLDY    64  57  77 CALM      30.06S
BRIDGEPORT     PTCLDY    70  62  76 CALM      30.03S
MERIDEN        CLEAR     64  61  90 CALM      30.04S
NEW HAVEN      CLEAR     68  61  78 CALM      30.04S
CHESTER        FAIR      63  61  94 CALM      30.06S
GROTON         CLEAR     59  58  96 N3        30.03F
WILLIMANTIC    CLEAR     62  60  93 CALM      30.05S

 IN RI

CITY           SKY/WX    TMP DP  RH WIND       PRES   REMARKS
PROVIDENCE     PTCLDY    63  60  90 CALM      30.06S
BLOCK ISLAND   CLEAR     63  57  82 CALM      30.04S
WESTERLY       CLEAR     60  58  92 CALM      30.04F

 IN MA

CITY           SKY/WX    TMP DP  RH WIND       PRES   REMARKS
BOSTON         PTCLDY    63  60  90 CALM      30.06S
WORCESTER      CLEAR     65  50  58 CALM      30.08S
WESTFIELD      MOCLDY    69  60  73 S5        30.04R
PROVINCETOWN   MOCLDY    57  52  82 MISG      30.06S
NANTUCKET      MOCLDY    64  60  87 NE8       30.03S
$$

ANZ330-335-338-340-345-350-353-355-210500-
COASTAL MARINE OBSERVATIONS


STATION/POSITION TIME  SKY/WX   TEMP    WIND        PRES    VSBY  WAVE
                                AIR SEA DIR/SP/G                  HT/PER
                 (UTC)          (F)     (DEG/KT/KT) (MB)    (MI)  (FT/S)
NY HARB ENTRANCE NOT AVBL
4S FIRE IS       NOT AVBL
23SW MTP         0400            68 70              1016.4          2/10
HUDSON CANYON    0400            71 73   60/ 12/ 14 1015.7          3/ 6
EXECUTION ROCKS  0400            72 74  200/  2/  4   N/A
WESTERN LI SOUND 0400            71     210/  4/  4   N/A           0
CENTRAL LI SOUND 0300            71 74  150/  4/  6   N/A           0
EASTERN LI SOUND 0300            68 68  100/  4/  6   N/A
ROBBINS REEF     0400            72     220/  5/  6   N/A
$$


>>>>>>>>>>>>>>>>>>>>>>>>>>>> KEY <<<<<<<<<<<<<<<<<<<<<<<<<<<
>                                                          <
>     SKY/WX - SKY CONDITION/PRESENT WEATHER               <
>     TMP    - TEMPERATURE IN FAHRENHEIT                   <
>     DP     - DEWPOINT IN FAHRENHEIT                      <
>     RH     - RELATIVE HUMIDITY IN PERCENT                <
>     WIND   - DIRECTION AND SPEED IN MPH                  <
>     PRES   - MEAN SEA LEVEL PRESSURE IN INCHES OF HG     <
>     WCI    - WIND CHILL INDEX                            <
>     VSB    - VISIBILITY IN MILES                         <
>     HX     - HEAT INDEX                                  <
>     TC     - TEMPERATURE IN CELSIUS                      <
>     VRB    - VARIABLE WIND DIRECTION                     <
>                                                          <
>>>>>>>>>>>>>>>>>>>>>>>>>>>> KEY <<<<<<<<<<<<<<<<<<<<<<<<<<<





USA.gov is the U.S. government's official web portal to all federal, state and local government web resources and services.